GFSFLT2_prec_cloud_003.txt.gz
Cloud_Cover
4 0 0 0 0 0 0 0 0 0 0 0 5 33 19 0 0 0 0 0 0 0 0 0 0 0 0 1 4 0 92 100
0 0 0 0 0 0 0 0 0 0 0 0 0 0 0 0 0 0 0 0 0 0 0 0 0 0 0 0 0 0 8 100
0 0 0 0 0 0 0 0 0 3 0 0 0 0 0 0 0 0 0 1 0 0 0 0 0 0 0 0 0 0 0 76
0 0 0 0 0 0 2 5 5 5 5 5 5 4 2 0 1 0 0 0 0 0 0 0 0 0 0 0 0 0 0 9
0 0 0 0 0 0 0 0 0 0 21 20 2 1 1 4 5 5 5 5 0 5 0 0 0 4 1 0 0 0 0 0
0 0 0 0 0 0 0 0 0 0 0 0 4 2 0 0 1 5 5 15 10 0 3 4 2 0 4 0 4 0 0 0
0 0 0 0 3 3 4 0 0 0 0 0 0 0 0 0 0 0 0 12 4 14 0 3 4 4 4 3 4 2 0 0
5 5 5 3 5 5 0 0 0 0 0 0 0 0 4 4 0 0 0 0 7 2 0 0 0 0 0 1 4 5 5 2
5 44 33 55 83 100 100 80 5 10 5 5 3 0 0 0 0 0 0 0 11 0 0 0 0 0 0 0 1 5 4 5
9 28 70 73 64 45 5 5 5 5 5 5 0 0 0 0 0 0 0 5 5 5 4 5 5 1 0 0 0 0 0 2
14 5 5 5 7 5 5 5 5 2 0 0 4 28 62 50 4 2 1 1 2 2 0 0 0 0 0 0 0 0 0 4
5 5 5 5 5 5 5 5 3 4 4 5 4 0 3 4 1 0 0 0 1 1 4 5 5 1 0 0 0 0 0 2
0 5 5 5 5 5 5 5 5 5 0 0 0 0 0 0 0 12 65 16 5 5 1 5 2 0 0 0 0 0 0 0
5 5 5 30 47 13 5 3 4 1 8 81 67 52 11 26 42 7 5 2 1 2 2 0 5 5 5 5 0 1 0 0
5 5 5 5 5 4 5 5 26 81 46 8 5 5 27 17 5 2 0 0 0 0 0 0 2 5 5 15 8 5 2 3
5 5 5 5 50 65 37 58 42 6 5 10 10 5 5 5 5 5 1 0 0 0 0 0 5 13 25 96 7 33 41 28
7 42 81 88 76 47 5 5 5 5 5 5 5 0 0 1 0 0 0 4 2 0 2 5 4 84 97 100 53 5 13 62
78 100 99 79 23 5 5 5 5 5 5 5 5 5 5 5 1 5 5 5 5 4 17 23 36 6 21 28 100 96 55 40
99 100 51 14 44 98 77 23 5 7 22 5 5 5 4 5 5 5 5 5 4 5 13 100 100 98 97 87 100 100 68 89
83 36 38 79 100 100 44 69 78 52 39 5 18 5 5 5 5 4 5 5 22 41 6 31 73 99 100 98 100 100 100 100

GFSFLT2_prec_cloud_006.txt.gz
Cloud_Cover
100 68 0 0 0 0 0 0 0 0 0 0 1 0 0 0 0 0 0 0 0 0 0 0 0 0 0 0 0 0 19 70
31 1 0 0 0 2 0 0 0 0 0 0 0 5 0 0 0 0 0 0 0 0 0 0 0 0 0 0 0 0 10 70
5 2 0 0 0 1 0 0 0 6 0 0 0 0 0 0 0 0 0 0 0 0 0 0 0 0 0 0 0 0 0 1
0 0 0 0 0 0 0 0 0 0 0 0 0 0 0 6 0 0 0 0 0 0 0 0 0 0 0 0 0 0 0 0
0 0 0 0 0 0 0 0 0 0 0 0 0 0 0 0 0 0 0 0 0 0 0 0 0 0 0 0 0 0 0 0
0 0 0 0 0 0 0 0 0 0 0 0 0 0 0 0 0 0 0 0 0 0 0 0 0 0 0 0 0 0 0 0
0 0 0 0 0 0 0 0 0 0 0 0 0 0 0 0 0 0 0 0 0 0 0 0 0 0 0 0 0 0 0 0
0 0 0 0 0 0 0 0 0 0 0 0 0 0 0 0 0 0 0 0 0 0 0 0 0 0 0 0 0 0 0 0
0 0 5 1 2 5 5 5 5 5 0 0 0 0 0 0 0 0 0 0 0 0 0 0 0 0 0 0 0 0 0 0
0 0 2 0 1 5 5 5 5 5 1 2 5 1 5 4 5 5 5 5 9 5 5 4 2 4 3 0 0 0 0 0
1 1 0 1 5 5 5 5 5 5 5 5 4 0 5 5 7 21 5 4 5 4 5 4 5 4 5 5 12 4 1 0
4 5 2 5 5 5 28 5 38 5 5 5 5 4 1 0 0 2 0 0 1 0 1 3 5 5 30 4 2 4 5 5
5 5 5 5 80 83 75 65 5 5 5 4 5 5 4 3 4 17 12 6 50 17 5 5 5 5 5 22 52 34 2 0
5 25 80 92 99 94 99 36 5 5 5 5 5 7 9 10 5 51 96 72 65 94 65 26 5 5 4 5 21 62 64 4
97 100 100 100 87 90 73 62 36 5 5 5 23 80 9 5 5 5 7 39 78 98 57 12 5 7 5 11 5 32 68 96
100 98 49 12 99 67 73 22 21 37 84 86 60 60 5 5 5 63 53 21 31 40 7 5 5 5 5 60 68 5 41 100
21 38 79 89 68 73 30 46 85 86 84 8 21 31 2 5 5 5 6 3 1 3 5 5 5 5 5 9 22 99 38 69
84 87 72 65 83 38 62 35 82 100 63 35 11 5 5 30 48 80 17 5 5 5 5 6 4 42 46 97 94 32 60 100
92 100 90 94 100 98 91 100 98 32 35 10 5 54 100 100 69 8 5 5 5 14 61 93 97 90 85 93 96 100 100 100
22 98 99 96 82 89 81 18 7 5 26 91 100 100 100 94 5 6 39 48 99 100 98 100 100 100 100 96 100 100 100 100

GFSFLT2_prec_cloud_009.txt.gz
Cloud_Cover
100 100 100 100 7 0 0 0 0 0 0 0 0 0 0 0 0 0 0 0 0 0 0 0 0 0 0 0 0 0 0 91
100 100 100 6 0 0 0 0 0 0 0 0 0 0 0 0 0 0 0 0 0 0 0 0 0 0 0 0 0 0 0 0
100 99 45 2 0 3 0 0 0 2 0 0 0 6 0 1 0 0 0 0 0 0 0 0 0 0 0 0 0 0 0 0
100 98 5 0 0 0 0 0 0 0 3 0 13 5 0 0 0 0 0 0 0 0 0 0 0 0 0 0 0 0 0 0
8 0 0 0 0 0 0 0 0 0 0 1 0 0 18 27 32 5 3 0 0 0 0 0 0 0 0 0 0 0 0 0
3 0 0 0 0 0 0 0 0 0 0 0 0 0 0 0 0 0 0 1 0 0 0 0 0 0 0 0 0 0 0 0
47 0 0 0 0 0 0 0 0 0 0 0 0 0 0 0 0 0 0 0 0 0 0 0 0 0 0 0 0 0 0 0
52 51 0 0 0 0 0 0 0 0 0 0 0 0 0 0 0 0 0 4 0 0 0 0 0 0 0 0 0 0 0 0
60 88 1 0 0 0 3 0 4 0 0 3 5 0 4 10 5 8 18 6 6 5 5 5 5 2 0 0 0 0 0 0
84 55 0 0 0 5 5 5 5 5 5 5 0 2 5 8 42 38 88 100 89 64 48 63 17 4 2 0 0 0 0 1
16 17 0 2 5 6 5 5 5 5 5 5 5 5 5 56 99 100 100 73 31 5 6 3 1 4 15 5 21 5 5 5
0 31 2 5 12 62 56 49 5 32 76 57 29 66 33 34 18 7 6 5 5 5 1 5 28 77 89 96 42 37 35 12
4 18 5 77 78 81 98 67 94 94 51 11 5 5 5 5 5 5 5 1 3 9 66 55 31 6 6 42 38 39 37 22
4 5 92 100 71 100 99 82 88 74 77 90 72 6 80 5 5 5 9 40 96 22 5 29 28 5 6 14 70 55 100 51
46 93 100 100 100 71 77 100 77 70 64 5 6 85 86 60 5 31 53 48 35 37 6 5 5 38 60 29 4 5 6 12
100 100 100 88 80 66 99 100 100 86 96 87 73 100 99 80 18 5 5 14 5 5 5 59 49 50 96 96 7 5 6 7
97 5 6 26 82 100 100 97 91 100 100 92 100 66 52 30 5 1 12 89 42 70 100 100 100 97 10 6 5 5 22 100
47 36 96 100 100 85 91 100 89 47 5 5 5 18 15 35 97 100 100 100 100 100 99 99 89 47 56 56 100 86 40 96
22 64 80 75 63 74 35 28 25 28 35 94 100 99 100 100 100 100 100 100 92 97 100 100 100 51 96 100 96 49 89 100
92 64 70 80 59 68 30 24 93 99 100 100 100 100 100 100 6 30 55 96 100 100 99 58 100 96 73 100 100 78 93 100

GFSFLT2_prec_cloud_012.txt.gz
Cloud_Cover
100 100 100 100 100 100 100 100 100 5 0 0 0 0 0 0 0 0 0 0 0 0 0 0 0 0 0 0 0 0 0 0
100 100 100 100 100 100 100 98 5 0 0 0 0 0 0 0 0 0 0 0 0 0 0 0 0 0 0 0 0 0 0 0
100 100 100 100 100 100 97 9 3 0 0 0 22 9 71 38 0 0 0 0 0 0 0 0 0 0 0 0 0 0 0 0
100 100 100 100 100 99 54 1 0 0 0 0 36 5 42 9 23 0 0 0 0 0 0 0 0 0 0 0 0 0 0 0
100 100 100 100 96 11 29 0 0 0 0 0 0 0 2 0 2 0 0 0 0 0 0 0 0 0 0 0 0 0 0 0
100 100 100 5 4 4 0 0 0 0 0 0 0 0 0 0 0 0 0 0 0 0 0 0 0 0 0 0 0 0 0 0
100 88 29 0 0 0 0 0 0 0 0 0 0 0 0 0 0 0 0 0 0 0 0 0 1 0 0 0 0 3 0 0
4 0 0 0 0 0 0 0 0 0 0 0 0 0 0 0 0 0 0 0 0 4 3 2 0 0 0 0 0 0 0 0
29 94 0 0 0 0 0 0 1 0 0 5 5 2 0 5 0 0 2 5 5 5 5 5 4 0 2 0 0 0 0 0
100 100 26 0 0 3 0 4 5 5 5 5 0 5 5 5 5 5 5 3 11 36 33 5 9 5 4 0 0 0 3 3
61 26 0 0 5 0 4 0 5 6 53 5 5 5 5 5 5 5 5 5 5 4 6 5 3 0 0 5 5 5 5 5
39 54 1 66 5 5 5 5 5 53 71 5 5 5 5 5 5 5 27 5 4 0 4 0 2 5 5 5 5 16 7 5
0 5 75 42 5 5 72 84 100 83 95 34 13 31 65 97 22 10 65 5 5 2 0 1 5 5 5 36 99 98 31 12
2 11 61 79 23 66 94 100 77 93 70 60 58 5 10 58 58 51 60 85 51 0 5 0 3 3 3 20 48 47 74 65
76 100 100 100 52 25 87 79 86 77 84 100 94 87 100 96 66 2 0 0 1 3 6 0 23 100 100 100 99 79 73 92
100 89 66 78 100 29 56 16 87 100 32 10 5 5 20 45 79 81 44 7 5 5 5 5 5 6 32 30 5 5 22 16
97 58 5 5 5 76 47 43 11 17 17 50 100 100 100 100 86 42 33 41 76 61 91 100 100 81 14 10 5 1 2 5
72 6 5 5 8 82 94 100 100 100 100 100 100 100 100 100 100 100 100 100 100 100 89 100 79 94 100 100 52 46 100 100
5 54 47 75 63 97 100 100 100 100 100 100 100 100 100 100 100 100 76 43 12 88 97 100 100 98 69 93 69 42 37 100
12 84 100 100 100 75 86 100 100 100 100 100 100 100 100 100 100 98 41 37 35 41 100 100 75 99 35 17 6 5 85 7

GFSFLT2_prec_cloud_015.txt.gz
Cloud_Cover
100 99 100 100 100 100 100 100 100 100 100 100 100 40 4 0 0 0 0 0 0 0 0 0 0 0 0 0 0 0 0 0
100 100 100 100 100 100 100 100 100 100 100 100 57 0 0 0 0 0 0 0 0 0 0 0 0 0 0 0 0 0 0 0
100 100 100 100 100 100 100 100 100 100 85 18 0 0 0 0 0 0 0 0 0 0 0 0 0 0 0 0 0 0 0 0
100 100 100 100 100 100 100 100 55 0 0 0 0 0 0 0 0 0 0 0 0 0 0 0 0 0 0 0 0 0 0 0
100 100 100 100 100 100 100 33 0 0 0 0 0 0 0 0 0 0 0 0 0 0 0 0 0 0 0 0 0 0 0 0
100 100 100 100 100 100 28 4 0 0 0 0 0 0 0 0 0 0 0 0 0 0 0 0 0 0 0 0 0 0 0 0
100 100 100 100 100 83 3 0 0 0 0 0 0 0 0 0 0 0 0 0 0 0 0 0 0 0 0 0 0 0 0 0
100 100 100 100 100 81 42 19 2 0 0 0 0 3 5 4 0 0 0 0 0 0 0 0 0 0 0 0 0 0 0 0
100 100 100 100 100 100 100 100 5 0 0 0 1 5 5 5 5 0 0 0 0 0 0 0 0 0 0 0 0 0 0 0
98 68 100 100 100 100 98 87 2 0 0 0 0 3 5 4 5 3 0 0 1 1 1 0 0 0 0 2 0 0 1 5
39 4 11 100 100 98 53 5 5 5 5 5 5 5 4 5 5 5 5 11 5 5 5 5 3 5 5 5 7 5 5 5
0 0 0 4 5 4 5 5 5 5 5 23 5 5 5 71 86 40 61 24 69 34 3 4 1 4 5 10 93 84 13 5
4 2 0 7 0 5 63 16 64 29 5 76 83 83 11 78 6 5 5 4 0 0 1 5 5 5 5 5 16 45 6 7
60 36 60 6 5 5 19 64 9 82 90 76 83 56 37 5 1 0 0 0 2 5 4 4 5 5 5 5 5 5 6 5
41 100 99 59 5 25 38 10 5 36 85 61 89 92 92 4 4 3 0 0 0 0 4 3 2 4 4 1 17 32 3 92
5 17 100 81 71 8 5 34 25 62 89 45 50 74 50 34 9 5 5 3 5 5 5 5 5 5 29 61 56 71 100 11
5 5 5 14 4 31 88 94 95 54 84 100 71 7 52 41 7 40 93 100 100 97 100 98 68 73 100 100 100 100 94 5
4 2 0 0 3 4 59 97 98 100 100 100 100 100 100 100 99 75 14 5 5 5 5 4 5 37 84 100 100 100 99 100
5 64 100 71 38 5 5 7 17 36 38 42 96 89 38 12 6 5 3 0 1 6 23 99 94 100 100 98 41 70 100 94
63 100 100 100 100 99 92 87 94 100 100 100 98 28 6 5 4 3 4 5 7 11 33 76 100 41 32 100 54 5 91 100

GFSFLT2_prec_cloud_018.txt.gz
Cloud_Cover
77 97 100 100 69 92 100 100 100 100 100 100 100 100 100 100 100 55 0 0 0 0 0 0 0 0 0 0 0 0 0 0
19 33 100 99 100 100 100 100 100 100 100 99 100 100 100 100 80 0 0 0 0 0 0 0 0 0 0 0 0 0 0 0
71 84 100 100 100 100 100 100 100 100 100 100 100 94 74 17 0 0 0 0 0 0 0 0 0 0 0 0 0 0 0 0
100 100 100 100 100 100 100 100 100 100 100 100 100 75 77 0 0 0 0 0 0 0 0 0 0 0 0 0 0 0 0 0
100 100 100 100 100 100 100 100 100 100 100 97 13 0 4 4 0 0 0 0 0 0 0 0 0 0 0 0 0 0 0 0
100 100 100 100 100 100 100 100 100 97 32 9 34 6 5 0 0 0 0 0 0 0 0 0 0 0 0 0 0 0 0 0
100 100 100 100 100 100 100 100 100 100 100 100 83 20 4 0 0 0 0 0 0 0 0 0 0 0 0 0 0 0 0 0
100 100 100 100 100 100 100 94 100 100 100 100 87 60 3 0 1 0 0 0 0 0 0 0 0 0 0 0 1 0 0 0
100 100 100 83 77 92 100 98 88 47 100 83 5 1 5 5 2 4 5 5 4 1 4 4 0 0 1 5 5 5 4 2
88 63 65 100 6 90 100 100 100 99 87 53 4 5 5 4 1 5 4 5 5 5 5 0 0 0 2 5 5 5 5 5
12 100 100 96 70 0 72 8 2 56 39 5 5 5 5 5 5 5 6 11 5 4 0 0 0 2 5 5 5 6 18 12
12 47 100 100 97 5 5 0 62 38 6 5 5 31 93 82 95 81 68 5 2 0 0 0 4 5 5 5 5 9 23 51
5 56 18 12 74 69 4 4 37 49 6 21 82 100 53 22 59 26 5 5 0 0 0 0 0 1 5 5 68 100 100 96
1 0 5 61 21 27 22 28 86 98 100 97 78 97 95 18 62 15 5 2 0 0 0 0 0 1 1 0 4 28 30 84
0 1 0 12 66 99 98 100 100 69 18 42 87 100 79 29 1 4 5 5 1 0 2 4 0 1 3 11 29 14 40 71
0 5 24 41 14 21 97 99 100 99 95 8 5 5 18 5 5 5 5 5 5 3 0 2 5 28 4 6 68 95 100 70
0 0 0 1 5 60 67 100 84 49 57 86 100 100 100 100 98 30 5 5 2 0 0 0 5 5 9 5 19 89 74 91
0 0 1 3 5 54 100 100 100 100 100 100 100 100 96 46 31 15 5 5 2 2 3 24 24 69 64 54 29 30 5 82
5 18 17 17 54 20 14 40 83 98 100 93 100 99 89 95 74 40 1 0 0 0 1 5 5 45 86 57 83 74 83 87
33 100 100 98 100 77 32 51 91 100 100 100 100 77 1 5 5 0 0 0 0 0 0 0 4 5 5 68 83 99 100 100